St. Francis, KS

1:47 AM CST on February 21, 2018 (GMT -0600)
Cheyenne County Municipal

Weather History for KSYF - March, 2014

Change the Weather History Date:

Monday, March 3, 2014

  Actual Average Record
Temperature  
Mean Temperature 30 °F -  
Max Temperature 56 °F 49 °F 70 °F (2013)
Min Temperature 4 °F 22 °F 4 °F (2014)
Degree Days  
Heating Degree Days 35    
Moisture  
Dew Point 15 °F    
Average Humidity 63    
Maximum Humidity 79    
Minimum Humidity 29    
Precipitation  
Precipitation 0.00 in - - ()
Sea Level Pressure  
Sea Level Pressure 30.05 in    
Wind  
Wind Speed 14 mph (South)    
Max Wind Speed 22 mph    
Max Gust Speed 25 mph    
Visibility 10 miles    
Events      
Averages and records for this station are not official NWS values.
T = Trace of Precipitation, MM = Missing Value Source: NWS Daily Summary

Daily Weather History Graph

Daily Weather History Graph

Search for Another Location

Airport or City:

Trip Planner

Search our weather history database for the weather conditions in past years. The results will help you decide how hot, cold, wet, or windy it might be!

Date:

Astronomy

Mar. 03, 2014 Rise Set
Actual Time 7:17 AM CST 6:41 PM CST
Civil Twilight 6:50 AM CST 7:08 PM CST
Nautical Twilight 6:19 AM CST 7:39 PM CST
Astronomical Twilight 5:47 AM CST 8:11 PM CST
Moon 8:27 AM CST (3/3) 9:46 PM CST (3/3)
Length of Visible Light 12h 18m
Length of Day
11h 24m
Waxing Crescent, 8% of the Moon is Illuminated
Mar 3
Waxing Crescent
Mar 8
First Quarter
Mar 16
Full
Mar 23
Last Quarter
Mar 30
New

Hourly Weather History & Observations

Time (CST) Temp. Windchill Dew Point Humidity Pressure Visibility Wind Dir Wind Speed Gust Speed Precip Events Conditions
12:15 AM 4.1 °F -12.0 °F -1.3 °F 78% 30.28 in 10.0 mi SSE 11.5 mph - N/A   Clear
12:35 AM 4.1 °F -12.7 °F -1.3 °F 78% 30.28 in 10.0 mi SSE 12.7 mph - N/A   Clear
12:55 AM 4.1 °F -12.7 °F -1.3 °F 78% 30.28 in 10.0 mi South 12.7 mph - N/A   Clear
1:15 AM 4.3 °F -10.9 °F -0.9 °F 79% 30.27 in 10.0 mi South 10.4 mph - N/A   Clear
1:35 AM 4.6 °F -12.0 °F -0.8 °F 78% 30.25 in 10.0 mi South 12.7 mph - N/A   Clear
1:55 AM 4.6 °F -14.0 °F -0.6 °F 79% 30.24 in 10.0 mi South 16.1 mph - N/A   Clear
2:15 AM 5.2 °F -13.3 °F -0.2 °F 78% 30.23 in 10.0 mi South 16.1 mph - N/A   Clear
2:35 AM 5.9 °F -11.8 °F 0.5 °F 78% 30.21 in 10.0 mi South 15.0 mph - N/A   Clear
2:55 AM 6.4 °F -9.0 °F 0.9 °F 78% 30.21 in 10.0 mi SSW 11.5 mph - N/A   Clear
3:15 AM 6.8 °F -7.8 °F 1.0 °F 77% 30.19 in 10.0 mi South 10.4 mph - N/A   Clear
3:35 AM 6.8 °F -7.8 °F 1.0 °F 77% 30.18 in 10.0 mi South 10.4 mph - N/A   Clear
3:55 AM 6.8 °F -10.7 °F 1.0 °F 77% 30.17 in 10.0 mi South 15.0 mph - N/A   Clear
4:15 AM 6.6 °F -8.8 °F 0.9 °F 77% 30.15 in 10.0 mi South 11.5 mph - N/A   Clear
4:35 AM 7.3 °F -11.1 °F 1.4 °F 77% 30.15 in 10.0 mi South 17.3 mph - N/A   Clear
4:55 AM 7.3 °F -10.6 °F 1.6 °F 77% 30.14 in 10.0 mi South 16.1 mph - N/A   Clear
5:15 AM 8.4 °F -8.6 °F 2.3 °F 76% 30.14 in 10.0 mi South 15.0 mph - N/A   Clear
5:35 AM 8.4 °F -7.9 °F 2.3 °F 76% 30.13 in 10.0 mi SSE 13.8 mph - N/A   Clear
5:55 AM 8.6 °F -8.3 °F 2.7 °F 77% 30.12 in 10.0 mi South 15.0 mph 18.4 mph N/A   Clear
6:15 AM 9.5 °F -7.2 °F 3.2 °F 76% 30.12 in 10.0 mi South 15.0 mph - N/A   Clear
6:35 AM 10.4 °F -6.6 °F 3.6 °F 74% 30.12 in 10.0 mi South 16.1 mph - N/A   Clear
6:55 AM 10.4 °F -5.4 °F 3.7 °F 74% 30.10 in 10.0 mi South 13.8 mph - N/A   Clear
7:15 AM 10.4 °F -4.1 °F 3.9 °F 75% 30.12 in 10.0 mi South 11.5 mph - N/A   Clear
7:35 AM 11.1 °F -5.7 °F 3.9 °F 73% 30.12 in 10.0 mi South 16.1 mph - N/A   Clear
7:55 AM 10.8 °F -6.7 °F 3.9 °F 74% 30.11 in 10.0 mi South 17.3 mph 24.2 mph N/A   Clear
8:15 AM 11.1 °F -5.7 °F 4.5 °F 75% 30.11 in 10.0 mi South 16.1 mph 21.9 mph N/A   Clear
8:35 AM 12.6 °F -3.3 °F 5.7 °F 74% 30.10 in 10.0 mi South 15.0 mph 19.6 mph N/A   Clear
8:55 AM 14.4 °F -3.4 °F 7.3 °F 74% 30.09 in 10.0 mi South 20.7 mph - N/A   Clear
9:15 AM 15.8 °F -1.9 °F 8.6 °F 73% 30.09 in 10.0 mi South 21.9 mph - N/A   Clear
9:35 AM 17.2 °F 1.7 °F 9.9 °F 73% 30.10 in 10.0 mi South 17.3 mph - N/A   Clear
9:55 AM 20.1 °F 4.2 °F 12.7 °F 73% 30.08 in 10.0 mi South 20.7 mph 25.3 mph N/A   Clear
10:15 AM 21.9 °F 6.5 °F 13.5 °F 70% 30.08 in 10.0 mi South 20.7 mph - N/A   Clear
10:35 AM 24.1 °F 9.8 °F 16.0 °F 71% 30.08 in 10.0 mi South 19.6 mph - N/A   Clear
10:55 AM 25.9 °F 12.5 °F 17.6 °F 71% 30.08 in 10.0 mi South 18.4 mph - N/A   Clear
11:15 AM 28.4 °F 15.1 °F 19.4 °F 69% 30.07 in 10.0 mi South 20.7 mph 25.3 mph N/A   Clear
11:35 AM 30.0 °F 17.9 °F 21.0 °F 69% 30.07 in 10.0 mi South 18.4 mph 21.9 mph N/A   Scattered Clouds
11:55 AM 31.8 °F 19.6 °F 21.9 °F 67% 30.05 in 10.0 mi South 20.7 mph - N/A   Scattered Clouds
12:15 PM 33.6 °F 22.6 °F 23.9 °F 68% 30.04 in 10.0 mi South 18.4 mph - N/A   Mostly Cloudy
12:35 PM 37.8 °F 27.7 °F 25.3 °F 61% 30.02 in 10.0 mi South 19.6 mph 24.2 mph N/A   Scattered Clouds
12:55 PM 40.1 °F 31.3 °F 26.4 °F 58% 30.00 in 10.0 mi South 17.3 mph - N/A   Scattered Clouds
1:15 PM 43.0 °F 34.5 °F 27.3 °F 54% 29.99 in 10.0 mi SSW 19.6 mph 23.0 mph N/A   Scattered Clouds
1:35 PM 45.1 °F 38.1 °F 27.5 °F 50% 29.97 in 10.0 mi South 16.1 mph 24.2 mph N/A   Clear
1:55 PM 46.9 °F - 27.3 °F 46% 29.96 in 10.0 mi South 18.4 mph 25.3 mph N/A   Clear
2:15 PM 48.4 °F - 26.6 °F 43% 29.96 in 10.0 mi South 17.3 mph 21.9 mph N/A   Clear
2:35 PM 50.2 °F - 26.1 °F 39% 29.95 in 10.0 mi South 15.0 mph - N/A   Clear
2:55 PM 52.2 °F - 25.9 °F 36% 29.94 in 10.0 mi SSW 16.1 mph 20.7 mph N/A   Clear
3:15 PM 53.8 °F - 25.5 °F 34% 29.93 in 10.0 mi South 16.1 mph - N/A   Clear
3:35 PM 55.0 °F - 25.0 °F 31% 29.93 in 10.0 mi South 13.8 mph - N/A   Clear
3:55 PM 55.9 °F - 24.4 °F 30% 29.92 in 10.0 mi South 12.7 mph - N/A   Clear
4:15 PM 56.5 °F - 24.4 °F 29% 29.92 in 10.0 mi South 15.0 mph 18.4 mph N/A   Clear
4:35 PM 55.9 °F - 23.7 °F 29% 29.92 in 10.0 mi South 11.5 mph - N/A   Clear
4:55 PM 55.9 °F - 24.6 °F 30% 29.91 in 10.0 mi South 15.0 mph - N/A   Clear
5:15 PM 54.9 °F - 24.8 °F 31% 29.91 in 10.0 mi SSE 10.4 mph - N/A   Clear
5:35 PM 53.4 °F - 23.9 °F 32% 29.91 in 10.0 mi South 13.8 mph - N/A   Clear
5:55 PM 51.1 °F - 23.4 °F 34% 29.92 in 10.0 mi South 11.5 mph - N/A   Clear
6:15 PM 48.2 °F - 23.4 °F 38% 29.92 in 10.0 mi SSE 10.4 mph - N/A   Clear
6:35 PM 44.6 °F 38.8 °F 23.5 °F 44% 29.92 in 10.0 mi South 11.5 mph - N/A   Clear
6:55 PM 42.3 °F 35.5 °F 23.5 °F 48% 29.93 in 10.0 mi South 12.7 mph - N/A   Clear
7:15 PM 40.8 °F 36.2 °F 23.2 °F 50% 29.93 in 10.0 mi SW 6.9 mph - N/A   Clear
7:35 PM 40.1 °F 34.7 °F 22.8 °F 50% 29.94 in 10.0 mi SSW 8.1 mph - N/A   Clear
7:55 PM 36.7 °F 29.4 °F 23.0 °F 58% 29.94 in 10.0 mi SW 10.4 mph - N/A   Clear
8:15 PM 37.8 °F 32.5 °F 23.0 °F 55% 29.95 in 10.0 mi SSW 6.9 mph - N/A   Clear
8:35 PM 35.2 °F 28.1 °F 23.5 °F 62% 29.95 in 10.0 mi SSW 9.2 mph - N/A   Clear
8:55 PM 34.9 °F 26.6 °F 23.4 °F 63% 29.95 in 10.0 mi SSW 11.5 mph - N/A   Clear
9:15 PM 34.9 °F 25.3 °F 23.0 °F 62% 29.95 in 10.0 mi SSW 15.0 mph - N/A   Clear
9:35 PM 34.2 °F 24.4 °F 23.0 °F 64% 29.95 in 10.0 mi SSW 15.0 mph - N/A   Clear
9:55 PM 33.4 °F 23.9 °F 23.4 °F 67% 29.95 in 10.0 mi SSW 13.8 mph - N/A   Clear
10:15 PM 33.3 °F 25.7 °F 23.9 °F 69% 29.96 in 10.0 mi SSW 9.2 mph - N/A   Clear
10:35 PM 32.2 °F 23.2 °F 23.9 °F 72% 29.95 in 10.0 mi SW 11.5 mph - N/A   Clear
10:55 PM 32.0 °F 23.0 °F 24.3 °F 73% 29.94 in 10.0 mi SW 11.5 mph - N/A   Clear
11:15 PM 32.7 °F 23.9 °F 25.0 °F 73% 29.95 in 10.0 mi SW 11.5 mph - N/A   Clear
11:35 PM 32.7 °F 23.4 °F 25.2 °F 74% 29.94 in 10.0 mi SW 12.7 mph - N/A   Clear
11:55 PM 32.4 °F 23.0 °F 25.2 °F 75% 29.94 in 10.0 mi WSW 12.7 mph - N/A   Clear